Terminal Aerodrome Forecast
Issued by NWS

Home | Current Version | Previous Version | Text Only | Print | Product List | Glossary On
Versions: 1 2 3 4 5 6 7 8 9 10 11 12 13 14 15 16 17 18 19 20 21 22 23 24 25 26 27 28 29 30 31 32 33 34 35 36 37 38 39 40 41 42 43 44 45 46 47 48 49 50
000
FTAK31 PANC 181736
TAFASN
TAF
PASN 181736Z 1818/1918 20010KT P6SM VCSH FEW025 BKN035
     FM190400 09007KT P6SM SCT035
     FM190900 06016KT P6SM -SHRA SCT012 BKN022=

USA.gov is the U.S. government's official web portal to all federal, state and local government web resources and services.